FW8483 Weather Reports


time (UTC)temp
F
wind
direction
speed
knots
gust
knots
rain 1hr
in
rain 24hr
in
rain mn
in
humidity
%
barometer
mb
20260902163513 90 91 5.2 10.4 0.00 0.00 0.00 67 1018.1
20260902163003 90 101 7.0 10.4 0.00 0.00 0.00 68 1018.2
20260902162504 89 53 3.5 9.6 0.00 0.00 0.00 70 1018.2
20260902162004 89 35 4.3 10.4 0.00 0.00 0.00 69 1018.4
20260902161509 89 66 3.5 10.4 0.00 0.00 0.00 71 1018.5
20260902161006 89 59 6.1 10.4 0.00 0.00 0.00 70 1018.5
20260902160503 89 80 3.5 7.0 0.00 0.00 0.00 69 1018.6
20260902160013 89 54 0.9 7.0 0.00 0.00 0.00 70 1018.6
20260902155509 88 76 3.5 6.1 0.00 0.00 0.00 72 1018.6
20260902155008 88 347 2.6 5.2 0.00 0.00 0.00 70 1018.6
20260902154521 88 46 2.6 5.2 0.00 0.00 0.00 72 1018.6
20260902154011 88 88 0.9 8.7 0.00 0.00 0.00 76 1018.7
20260902153512 87 316 1.7 8.7 0.00 0.00 0.00 76 1018.7
20260902153029 87 9 0.9 8.7 0.00 0.00 0.00 74 1018.7
20260902152513 87 334 3.5 8.7 0.00 0.00 0.00 75 1018.7
20260902152006 87 63 3.5 7.0 0.00 0.00 0.00 74 1018.6
20260902151508 86 59 1.7 7.8 0.00 0.00 0.00 77 1018.6
20260902151005 86 17 2.6 7.8 0.00 0.00 0.00 77 1018.6
20260902150508 86 352 4.3 7.8 0.00 0.00 0.00 78 1018.5
20260902150012 85 61 2.6 7.8 0.00 0.00 0.00 81 1018.4
20260902145506 85 9 5.2 8.7 0.00 0.00 0.00 79 1018.3
20260902145011 85 44 3.5 8.7 0.00 0.00 0.00 83 1018.3
20260902144533 85 65 5.2 8.7 0.00 0.00 0.00 81 1018.2
20260902144011 84 352 1.7 6.1 0.00 0.00 0.00 83 1018.2
20260902143512 84 349 2.6 7.0 0.00 0.00 0.00 83 1018.3
20260902143028 84 331 2.6 7.0 0.00 0.00 0.00 84 1018.2
20260902142514 83 28 3.5 5.2 0.00 0.00 0.00 84 1018.3
20260902142014 83 327 2.6 5.2 0.00 0.00 0.00 87 1018.2
20260902141535 82 17 0.9 4.3 0.00 0.00 0.00 86 1018.3
20260902141003 82 52 0.9 5.2 0.00 0.00 0.00 86 1018.3
20260902140504 83 5 2.6 5.2 0.00 0.00 0.00 85 1018.3
20260902140012 83 32 3.5 5.2 0.00 0.00 0.00 84 1018.2
20260902135504 83 352 2.6 5.2 0.00 0.00 0.00 85 1018.3
20260902135008 83 40 2.6 5.2 0.00 0.00 0.00 85 1018.3
20260902134518 83 352 2.6 4.3 0.00 0.00 0.00 85 1018.3
20260902134009 83 298 0.0 4.3 0.00 0.00 0.00 86 1018.3
20260902133516 82 352 1.7 4.3 0.00 0.00 0.00 86 1018.3
20260902133025 82 318 0.0 3.5 0.00 0.00 0.00 88 1018.3
20260902132516 82 11 1.7 4.3 0.00 0.00 0.00 88 1018.3
20260902132011 81 34 2.6 4.3 0.00 0.00 0.00 89 1018.4
20260902131542 81 40 2.6 4.3 0.00 0.00 0.00 89 1018.4
20260902131015 81 46 0.9 3.5 0.00 0.00 0.00 91 1018.3
20260902130503 80 43 0.9 3.5 0.00 0.00 0.00 92 1018.4
20260902130008 80 69 1.7 3.5 0.00 0.00 0.00 93 1018.3
20260902125506 79 85 2.6 3.5 0.00 0.00 0.00 93 1018.4
20260902125006 79 72 1.7 3.5 0.00 0.00 0.00 93 1018.4
20260902124516 79 81 1.7 2.6 0.00 0.00 0.00 94 1018.4
20260902124009 78 81 0.0 1.7 0.00 0.00 0.00 95 1018.4
20260902123509 78 65 0.0 0.0 0.00 0.00 0.00 95 1018.4
20260902123023 78 78 0.0 0.0 0.00 0.00 0.00 96 1018.3
20260902122514 77 78 0.0 0.0 0.00 0.00 0.00 96 1018.2
20260902122011 77 78 0.0 0.0 0.00 0.00 0.00 97 1018.2
20260902121528 76 40 0.0 0.0 0.00 0.00 0.00 97 1018.2
20260902121014 76 56 0.0 0.0 0.00 0.00 0.00 97 1018.1
20260902120516 76 49 0.0 0.0 0.00 0.00 0.00 97 1018.0
20260902120031 76 49 0.0 0.0 0.00 0.00 0.00 97 1018.0
20260902115505 75 40 0.0 0.0 0.00 0.00 0.00 97 1017.9
20260902115006 75 46 0.0 0.0 0.00 0.00 0.00 97 1017.9
20260902114519 75 49 0.0 0.0 0.00 0.00 0.00 97 1018.0
20260902114010 75 39 0.0 0.0 0.00 0.00 0.00 97 1018.0
20260902113509 75 39 0.0 0.0 0.00 0.00 0.00 97 1018.0
20260902113020 75 38 0.0 0.0 0.00 0.00 0.00 97 1017.9
20260902112513 75 51 0.0 0.0 0.00 0.00 0.00 97 1017.9
20260902112011 75 55 0.0 0.0 0.00 0.00 0.00 97 1017.9
20260902111527 74 55 0.0 0.0 0.00 0.00 0.00 97 1017.9
20260902111012 74 130 0.0 0.0 0.00 0.00 0.00 97 1017.8
20260902110515 74 130 0.0 0.0 0.00 0.00 0.00 97 1017.7
20260902110030 74 130 0.0 0.0 0.00 0.00 0.00 97 1017.7
20260902105516 74 130 0.0 0.0 0.00 0.00 0.00 97 1017.6
20260902105016 74 130 0.0 0.0 0.00 0.00 0.00 97 1017.5
20260902104517 74 130 0.0 0.0 0.00 0.00 0.00 97 1017.5
20260902104007 74 130 0.0 0.0 0.00 0.00 0.00 97 1017.5
20260902103509 74 130 0.0 0.0 0.00 0.00 0.00 97 1017.6
20260902103019 74 130 0.0 0.0 0.00 0.00 0.00 96 1017.6
20260902102510 74 130 0.0 0.0 0.00 0.00 0.00 96 1017.6
20260902102011 75 130 0.0 0.0 0.00 0.00 0.00 97 1017.6
20260902101527 75 130 0.0 0.0 0.00 0.00 0.00 97 1017.5
20260902101014 75 130 0.0 0.0 0.00 0.00 0.00 97 1017.4
20260902100515 75 130 0.0 0.0 0.00 0.00 0.00 97 1017.4
20260902100029 75 130 0.0 0.0 0.00 0.00 0.00 97 1017.3
20260902095517 75 130 0.0 0.0 0.00 0.00 0.00 97 1017.3
20260902095017 74 130 0.0 0.0 0.00 0.00 0.00 97 1017.2
20260902094533 74 130 0.0 0.0 0.00 0.00 0.00 97 1017.1
20260902094016 74 130 0.0 0.0 0.00 0.00 0.00 96 1017.0
20260902093508 74 130 0.0 0.0 0.00 0.00 0.00 96 1017.0
20260902093016 74 130 0.0 0.0 0.00 0.00 0.00 96 1016.9
20260902092512 74 130 0.0 0.0 0.00 0.00 0.00 96 1016.8
20260902092012 75 130 0.0 0.0 0.00 0.00 0.00 97 1016.7
20260902091554 75 130 0.0 0.0 0.00 0.00 0.00 97 1016.6
20260902091013 74 130 0.0 0.0 0.00 0.00 0.00 97 1016.7
20260902090513 74 130 0.0 0.0 0.00 0.00 0.00 96 1016.8
20260902090029 74 130 0.0 0.0 0.00 0.00 0.00 96 1016.8
20260902085514 75 130 0.0 0.0 0.00 0.00 0.00 96 1016.7
20260902085014 75 130 0.0 0.0 0.00 0.00 0.00 96 1016.7
20260902084535 75 130 0.0 0.0 0.00 0.00 0.00 96 1016.7
20260902084015 75 130 0.0 0.0 0.00 0.00 0.00 96 1016.6
20260902083519 75 130 0.0 0.0 0.00 0.00 0.00 96 1016.6
20260902083031 75 130 0.0 0.0 0.00 0.00 0.00 96 1016.6
20260902082508 75 130 0.0 0.0 0.00 0.00 0.00 96 1016.5
20260902082008 75 130 0.0 0.0 0.00 0.00 0.00 96 1016.5
20260902081530 75 130 0.0 0.0 0.00 0.00 0.00 96 1016.6
20260902081009 76 130 0.0 0.0 0.00 0.00 0.00 96 1016.6
20260902080513 76 130 0.0 0.0 0.00 0.00 0.00 96 1016.6
20260902080035 76 130 0.0 0.0 0.00 0.00 0.00 96 1016.6
20260902075510 76 130 0.0 0.0 0.00 0.00 0.00 96 1016.7
20260902075016 76 130 0.0 0.0 0.00 0.00 0.00 96 1016.8
20260902074510 76 130 0.0 0.0 0.00 0.00 0.00 96 1016.9
20260902074004 76 130 0.0 0.0 0.00 0.00 0.00 96 1016.8
20260902073506 76 130 0.0 0.0 0.00 0.00 0.00 96 1016.8
20260902073015 76 130 0.0 0.0 0.00 0.00 0.00 96 1016.9
20260902072507 76 130 0.0 0.0 0.00 0.00 0.00 96 1016.8
20260902072007 76 130 0.0 0.0 0.00 0.00 0.00 96 1016.8
20260902071545 76 130 0.0 0.0 0.00 0.00 0.00 96 1016.8
20260902071012 76 130 0.0 0.0 0.00 0.00 0.00 96 1016.7
20260902070511 76 130 0.0 0.0 0.00 0.00 0.00 96 1016.6
20260902070027 76 130 0.0 0.0 0.00 0.00 0.00 96 1016.6
20260902065518 76 130 0.0 0.0 0.00 0.00 0.00 95 1016.6
20260902065014 76 130 0.0 0.0 0.00 0.00 0.00 95 1016.6
20260902064531 76 130 0.0 0.0 0.00 0.00 0.00 96 1016.7
20260902064018 76 130 0.0 0.0 0.00 0.00 0.00 96 1016.8
20260902063503 76 130 0.0 0.0 0.00 0.00 0.00 96 1016.9
20260902063019 76 130 0.0 0.0 0.00 0.00 0.00 96 1016.9
20260902062505 77 130 0.0 0.0 0.00 0.00 0.00 96 1016.9
20260902062006 77 130 0.0 0.0 0.00 0.00 0.00 96 1017.0
20260902061531 77 130 0.0 0.0 0.00 0.00 0.00 96 1017.0
20260902061008 77 130 0.0 0.0 0.00 0.00 0.00 96 1017.0
20260902060512 77 130 0.0 0.0 0.00 0.00 0.00 96 1017.0
20260902060031 77 130 0.0 0.0 0.00 0.00 0.00 96 1017.0
20260902055516 77 130 0.0 0.0 0.00 0.00 0.00 96 1017.0
20260902055012 77 130 0.0 0.0 0.00 0.00 0.00 96 1017.1
20260902054538 77 130 0.0 0.0 0.00 0.00 0.00 96 1017.2
20260902054015 76 126 0.0 0.0 0.00 0.00 0.00 96 1017.1
20260902053514 76 93 0.0 1.7 0.00 0.00 0.00 95 1017.1
20260902053033 76 93 0.0 1.7 0.00 0.00 0.00 95 1017.1
20260902052504 77 93 0.0 1.7 0.00 0.00 0.00 96 1017.1
20260902052004 77 93 0.0 1.7 0.00 0.00 0.00 95 1017.0
20260902051516 77 93 1.7 1.7 0.00 0.00 0.00 95 1017.1
20260902051007 77 238 0.0 3.5 0.00 0.00 0.00 96 1017.0
20260902050507 76 116 0.0 3.5 0.00 0.00 0.00 95 1017.1
20260902050046 77 94 0.9 3.5 0.00 0.00 0.00 96 1017.1
20260902045511 76 275 0.0 3.5 0.00 0.00 0.00 96 1017.1
20260902045012 76 101 2.6 3.5 0.00 0.00 0.00 95 1017.2
20260902044531 76 289 0.0 0.0 0.00 0.00 0.00 95 1017.1
20260902044014 76 102 0.0 0.0 0.00 0.00 0.00 94 1017.1
20260902043517 76 102 0.0 0.0 0.00 0.00 0.00 95 1017.1
20260902043038 76 102 0.0 0.0 0.00 0.00 0.00 95 1017.0
20260902042517 76 102 0.0 1.7 0.00 0.00 0.00 94 1017.0
20260902042017 77 281 0.0 1.7 0.00 0.00 0.00 95 1017.0
20260902041519 76 86 0.0 3.5 0.00 0.00 0.00 94 1016.9
20260902041007 77 86 2.6 3.5 0.00 0.00 0.00 94 1017.0
20260902040508 77 115 0.0 0.0 0.00 0.00 0.00 94 1017.0
20260902040019 77 115 0.0 1.7 0.00 0.00 0.00 94 1017.0
20260902035510 77 115 0.0 1.7 0.00 0.00 0.00 93 1017.0
20260902035013 77 115 0.0 1.7 0.00 0.00 0.00 94 1017.1
20260902034529 77 216 0.0 0.0 0.00 0.00 0.00 94 1017.1
20260902034017 77 216 0.0 0.0 0.00 0.00 0.00 93 1017.4
20260902033512 77 124 0.0 0.0 0.00 0.00 0.00 93 1017.4
20260902033031 77 124 0.0 0.0 0.00 0.00 0.00 93 1017.4
20260902032517 77 124 0.0 0.0 0.00 0.00 0.00 92 1017.3
20260902032018 77 124 0.0 0.0 0.00 0.00 0.00 92 1017.5
20260902031534 77 198 0.0 0.0 0.00 0.00 0.00 92 1017.5
20260902031006 78 198 0.0 0.0 0.00 0.00 0.00 91 1017.6
20260902030505 78 198 0.0 0.0 0.00 0.00 0.00 91 1017.6
20260902030019 78 198 0.0 0.0 0.00 0.00 0.00 90 1017.6
20260902025510 79 198 0.0 0.0 0.00 0.00 0.00 90 1017.4
20260902025009 79 198 0.0 0.0 0.00 0.00 0.00 90 1017.3
20260902024524 79 198 0.0 0.0 0.00 0.00 0.00 89 1017.4
20260902024015 79 198 0.0 0.0 0.00 0.00 0.00 89 1017.4
20260902023512 79 198 0.0 0.0 0.00 0.00 0.00 89 1017.4
20260902023030 79 198 0.0 0.0 0.00 0.00 0.00 89 1017.4
20260902022518 79 198 0.0 0.0 0.00 0.00 0.00 89 1017.3
20260902022017 79 184 0.0 0.0 0.00 0.00 0.00 88 1017.2
20260902021532 80 186 0.0 1.7 0.00 0.00 0.00 87 1017.2
20260902021017 80 186 0.0 1.7 0.00 0.00 0.00 87 1017.1
20260902020520 80 186 0.0 4.3 0.00 0.00 0.00 87 1017.0
20260902020015 80 178 0.0 4.3 0.00 0.00 0.00 87 1016.9
20260902015506 80 236 0.9 5.2 0.00 0.00 0.00 87 1016.9
20260902015012 80 188 0.0 5.2 0.00 0.00 0.00 87 1016.8
20260902014528 80 164 0.0 3.5 0.00 0.00 0.00 87 1016.7
20260902014011 80 256 0.0 0.0 0.00 0.00 0.00 86 1016.6
20260902013513 80 256 0.0 0.0 0.00 0.00 0.00 86 1016.5
20260902013030 80 256 0.0 0.0 0.00 0.00 0.00 84 1016.4
20260902012515 81 256 0.0 0.0 0.00 0.00 0.00 83 1016.4
20260902012014 81 256 0.0 0.0 0.00 0.00 0.00 83 1016.3
20260902011542 81 256 0.0 0.0 0.00 0.00 0.00 82 1016.3
20260902011017 81 256 0.0 0.0 0.00 0.00 0.00 83 1016.2
20260902010518 82 256 0.0 0.0 0.00 0.00 0.00 82 1016.3
20260902010104 82 256 0.0 0.0 0.00 0.00 0.00 80 1016.2
20260902005516 82 256 0.0 0.0 0.00 0.00 0.00 79 1016.3
20260902005010 83 256 0.0 0.0 0.00 0.00 0.00 79 1016.1
20260902004520 83 256 0.0 0.0 0.00 0.00 0.00 78 1016.1
20260902004011 83 256 0.0 0.0 0.00 0.00 0.00 77 1016.1
20260902003512 84 256 0.0 0.0 0.00 0.00 0.00 76 1016.0
20260902003027 84 256 0.0 0.0 0.00 0.00 0.00 76 1016.0
20260902002514 84 256 0.0 0.0 0.00 0.00 0.00 75 1016.0
20260902002013 85 256 0.0 0.0 0.00 0.00 0.00 74 1016.0
20260902001531 85 256 0.0 0.0 0.00 0.00 0.00 73 1016.1
20260902001015 86 256 0.0 0.0 0.00 0.00 0.00 73 1016.0
20260902000517 86 256 0.0 0.0 0.00 0.00 0.00 72 1016.0
20260902000042 86 256 0.0 0.0 0.00 0.00 0.00 71 1016.0
20260901235518 87 256 0.0 0.0 0.00 0.00 0.00 70 1016.0
20260901235018 87 260 0.0 0.0 0.00 0.00 0.00 70 1016.0
20260901234533 87 259 0.0 2.6 0.00 0.00 0.00 70 1016.0
20260901234007 88 96 0.0 3.5 0.00 0.00 0.00 68 1016.0
20260901233508 88 107 1.7 3.5 0.00 0.00 0.00 65 1016.0
20260901233023 89 95 2.6 3.5 0.00 0.00 0.00 65 1016.1
20260901232512 89 98 2.6 3.5 0.00 0.00 0.00 65 1016.1
20260901232014 89 110 1.7 3.5 0.00 0.00 0.00 65 1016.0
20260901231505 89 119 1.7 2.6 0.00 0.00 0.00 66 1016.0
20260901231002 90 110 1.7 2.6 0.00 0.00 0.00 65 1016.0
20260901230502 90 101 0.9 5.2 0.00 0.00 0.00 65 1015.9
20260901230009 90 90 2.6 5.2 0.00 0.00 0.00 63 1015.8
20260901225503 90 90 1.7 3.5 0.00 0.00 0.00 63 1015.9
20260901225007 91 85 2.6 5.2 0.00 0.00 0.00 62 1015.9
20260901224518 91 115 1.7 8.7 0.00 0.00 0.00 63 1016.0
20260901224007 91 96 4.3 8.7 0.00 0.00 0.00 61 1016.0
20260901223508 91 86 3.5 7.0 0.00 0.00 0.00 61 1016.0
20260901223042 91 104 3.5 7.0 0.00 0.00 0.00 62 1015.9
20260901222509 91 92 2.6 8.7 0.00 0.00 0.00 61 1015.9
20260901222016 91 60 4.3 8.7 0.00 0.00 0.00 60 1015.9
20260901221505 92 88 3.5 7.0 0.00 0.00 0.00 61 1015.8
20260901221003 92 109 2.6 7.0 0.00 0.00 0.00 60 1015.8
20260901220502 92 109 1.7 8.7 0.00 0.00 0.00 61 1015.8
20260901220006 92 71 6.1 8.7 0.00 0.00 0.00 59 1015.8
20260901215505 92 71 2.6 8.7 0.00 0.00 0.00 61 1015.8
20260901215002 92 78 3.5 10.4 0.00 0.00 0.00 57 1015.7
20260901214513 92 78 7.8 10.4 0.00 0.00 0.00 60 1015.7
20260901214006 92 100 4.3 9.6 0.00 0.00 0.00 61 1015.6
20260901213508 92 128 3.5 7.8 0.00 0.00 0.00 58 1015.6
20260901213022 92 82 2.6 9.6 0.00 0.00 0.00 59 1015.6
20260901212511 92 94 3.5 9.6 0.00 0.00 0.00 58 1015.7
20260901212011 92 21 2.6 9.6 0.00 0.00 0.00 58 1015.7
20260901211528 92 20 5.2 9.6 0.00 0.00 0.00 56 1015.6
20260901211002 92 114 4.3 8.7 0.00 0.00 0.00 58 1015.6
20260901210503 92 98 6.1 10.4 0.00 0.00 0.00 57 1015.6
20260901210008 92 96 3.5 10.4 0.00 0.00 0.00 60 1015.7
20260901205503 92 54 3.5 7.0 0.00 0.00 0.00 59 1015.7
20260901205002 92 94 4.3 9.6 0.00 0.00 0.00 57 1015.7
20260901204520 92 92 3.5 9.6 0.00 0.00 0.00 58 1015.8
20260901204006 92 88 6.1 12.2 0.00 0.00 0.00 61 1015.8
20260901203507 92 74 6.1 12.2 0.00 0.00 0.00 58 1015.8
20260901203019 92 11 0.9 7.8 0.00 0.00 0.00 57 1015.8
20260901202510 92 35 4.3 11.3 0.00 0.00 0.00 58 1015.9
20260901202009 92 107 6.1 11.3 0.00 0.00 0.00 59 1015.9
20260901201525 92 120 6.1 7.8 0.00 0.00 0.00 59 1015.9
20260901201014 92 111 1.7 9.6 0.00 0.00 0.00 60 1016.0
20260901200513 92 69 7.0 9.6 0.00 0.00 0.00 58 1016.0
20260901200015 92 46 3.5 8.7 0.00 0.00 0.00 58 1016.1
20260901195503 92 74 4.3 8.7 0.00 0.00 0.00 59 1016.2
20260901195003 92 91 4.3 10.4 0.00 0.00 0.00 62 1016.2
20260901194509 91 58 4.3 10.4 0.00 0.00 0.00 58 1016.3
20260901194006 91 87 6.1 9.6 0.00 0.00 0.00 59 1016.3
20260901193507 91 64 2.6 11.3 0.00 0.00 0.00 62 1016.5
20260901193014 91 121 7.0 11.3 0.00 0.00 0.00 61 1016.6
20260901192509 91 92 4.3 8.7 0.00 0.00 0.00 62 1016.5
20260901192008 91 73 4.3 12.2 0.00 0.00 0.00 61 1016.6
20260901191529 91 40 6.1 12.2 0.00 0.00 0.00 61 1016.7
20260901191015 90 54 4.3 12.2 0.00 0.00 0.00 67 1016.7
20260901190513 90 38 2.6 11.3 0.00 0.00 0.00 65 1016.9
20260901190032 90 66 7.0 11.3 0.00 0.00 0.00 62 1016.8
20260901185513 91 126 6.1 10.4 0.00 0.00 0.00 61 1016.9
20260901185003 91 87 6.1 9.6 0.00 0.00 0.00 60 1017.1
20260901184510 90 84 5.2 8.7 0.00 0.00 0.00 64 1017.1
20260901184006 90 94 5.2 8.7 0.00 0.00 0.00 63 1017.1
20260901183506 91 86 4.3 8.7 0.00 0.00 0.00 62 1017.2
20260901183013 91 74 2.6 9.6 0.00 0.00 0.00 61 1017.3
20260901182507 90 38 6.1 9.6 0.00 0.00 0.00 60 1017.4
20260901182008 90 51 7.0 9.6 0.00 0.00 0.00 62 1017.4
20260901181522 90 317 3.5 9.6 0.00 0.00 0.00 64 1017.5
20260901181012 90 68 4.3 9.6 0.00 0.00 0.00 67 1017.5
20260901180511 90 18 4.3 13.9 0.00 0.00 0.00 63 1017.6
20260901180032 90 17 4.3 13.9 0.00 0.00 0.00 64 1017.7
20260901175513 90 51 4.3 7.0 0.00 0.00 0.00 65 1017.7
20260901175015 90 41 2.6 8.7 0.00 0.00 0.00 64 1017.8
20260901174535 90 82 3.5 10.4 0.00 0.00 0.00 66 1017.9
20260901174007 90 328 6.1 10.4 0.00 0.00 0.00 67 1017.9
20260901173504 90 74 6.1 9.6 0.00 0.00 0.00 65 1018.0
20260901173011 89 98 4.3 8.7 0.00 0.00 0.00 63 1018.1
20260901172504 89 91 3.5 8.7 0.00 0.00 0.00 66 1018.3
20260901172008 89 67 5.2 13.0 0.00 0.00 0.00 63 1018.3
20260901171517 90 48 3.5 13.0 0.00 0.00 0.00 62 1018.2
20260901171009 89 94 8.7 13.0 0.00 0.00 0.00 65 1018.3
20260901170511 89 101 7.0 9.6 0.00 0.00 0.00 64 1018.4
20260901170036 89 61 5.2 9.6 0.00 0.00 0.00 65 1018.4
20260901165512 89 74 3.5 9.6 0.00 0.00 0.00 67 1018.4
20260901165015 89 83 3.5 8.7 0.00 0.00 0.00 66 1018.5
20260901164533 89 13 4.3 8.7 0.00 0.00 0.00 66 1018.4
20260901164015 89 58 4.3 8.7 0.00 0.00 0.00 66 1018.4